sat.trackr.live / text

‹ back to catalog

UNKNOWN

NORAD 81371

UNKNOWN UNKNOWN UNKNOWN

§ Identity

Operator
Country
Launch date
Launch site
Launch vehicle
Mass (kg)
RCS (m²)

External: N2YO · Heavens-Above

§ Orbital elements

Epoch: 2026-05-23T01:11:07.013472Z

Period
97.85 min
Inclination
98.8186°
Eccentricity
0.0067945
Mean motion
14.71576353 rev/d
Perigee alt
608.2 km
Apogee alt
703.8 km
Semi-major
7,034.2 km
B*
3.4412e-4
RAAN
257.6053°
Arg perigee
220.6992°
Mean anomaly
138.9124°
Rev number
66,555

§ Raw data

UNKNOWN1 81371U          26143.04938673  .00002155  00000+0  34412-3 0  99952 81371  98.8186 257.6053 0067945 220.6992 138.9124 14.71576353665558

JSON: /api/v1/satellites/81371 · /tle

For live sub-satellite position, see the globe view (requires WebGL).

§ Visibility from observer

Set your observer location to see the next 7 days of passes ≥ 10°. The values pass through the URL so the page stays shareable.

No JS? Fill the form by hand. The geolocation button needs JavaScript.